Location: Roanoke
(37.2710°N, 79.9420°W)
Time: 02:32:19
(UTC-05:00)

S-56A Canister/Altair - Pass Details

Date: 26 November 2019
Orbit: 633 x 2500 km, 38.9° (Epoch: 12 December)

Event Time Altitude Azimuth Distance (km) Brightness Sun altitude
Rises 16:27:08 0° 262° (W) 5,879 13.5 5.6°
Reaches altitude 10° 16:31:20 10° 263° (W) 4,673 13.0 4.8°
Maximum altitude 16:43:49 84° 352° (N) 1,622 9.3 2.7°
Drops below altitude 10° 16:51:55 10° 81° (E) 3,148 10.1 1.3°
Sets 16:54:14 0° 83° (E) 3,907 10.5 0.9°
